Overview Statistics Trail Chart Weather Telemetry Raw packets
 

This is the latest recevied weather packets stored in our database for station/object K6GMW. If no packets are shown the sender has not sent any weather packets the latest 10 day(s).

<< 84 85 86 87 88 89 90 >>
Time Temp. Humidity Pressure Rain* Wind** Luminosity Snow
1788010419 25° C 82% 1019.9 hPa 0 mm - 102 W/m² -
1788010114 25° C 82% 1019.8 hPa 0 mm - 147 W/m² -
1788009809 24.44° C 85% 1019.8 hPa 0 mm - 79 W/m² -
1788009507 23.89° C 87% 1019.8 hPa 0 mm - 75 W/m² -
1788009202 23.33° C 90% 1019.8 hPa 0 mm - 89 W/m² -
1788008897 23.33° C 92% 1019.7 hPa 0 mm - 69 W/m² -
1788008600 22.78° C 92% 1019.6 hPa 0 mm - 65 W/m² -
1788008290 22.78° C 93% 1019.8 hPa 0 mm - 65 W/m² -
1788007988 22.22° C 93% 1019.7 hPa 0 mm - 62 W/m² -
1788007687 21.67° C 93% 1019.7 hPa 0 mm - 63 W/m² -
1788007383 21.67° C 93% 1019.7 hPa 0 mm - 52 W/m² -
1788007082 21.67° C 93% 1019.6 hPa 0 mm - 47 W/m² -
1788006781 21.67° C 93% 1019.7 hPa 0 mm - 43 W/m² -
1788006487 21.67° C 93% 1019.4 hPa 0 mm - 37 W/m² -
1788006176 21.11° C 93% 1019.5 hPa 0 mm - 33 W/m² -
1788005875 21.11° C 93% 1019.4 hPa 0 mm - 27 W/m² -
1788005570 21.11° C 93% 1019.4 hPa 0 mm - 22 W/m² -
1788005269 21.11° C 93% 1019.4 hPa 0 mm - 17 W/m² -
1788004968 21.11° C 93% 1019.3 hPa 0 mm - 12 W/m² -
1788004667 21.11° C 92% 1019.2 hPa 0 mm - 7 W/m² -
1788004363 21.67° C 92% 1019.2 hPa 0 mm - 4 W/m² -
1788004062 21.67° C 92% 1019.2 hPa 0 mm - 2 W/m² -
1788003761 21.67° C 92% 1019.1 hPa 0 mm - 1 W/m² -
1788003457 21.67° C 92% 1019.2 hPa 0 mm - 0 W/m² -
1788003156 21.67° C 92% 1019 hPa 0 mm - 0 W/m² -

* Rain latest hour (hover to see other rain measurements)
** Current wind speed in m/s (hover to see current wind gust speed)